• Join FlightAware (Why Join?)
  • Login
  • US Flag 
10:46AM EDT


 

Airport Tracker/Info


-or-


 

Live Flight TrackerFlight Track Log ✈ VOZ1448 ✈ 05-Oct-2013 ✈ YBCG / OOL - YPAD / ADL

Flight Track Log - Related Links

Times and Time Zones

All times are in EDT time to prevent confusion due to time zone crossing. See the VOZ1448 flight status page for this flight to view local times or setup timezone preferences in your user account.

Time Position Orientation Groundspeed Altitude Reporting Facility
EDT Latitude Longitude Course Direction KTS MPH feet Rate Location/Type
10:27PM -28.1326 153.5182 46° Northeast 3,200  Level Aus ATC (Calculated)
10:28PM -28.1190 153.5340 76° East 222 255 2,500 120 Descending FlightAware
10:28PM -28.1146 153.5534 75° East 230 265 3,400 2,820 Climbing FlightAware ADS-B (EKCH / CPH)
10:29PM -28.1232 153.5822 109° East 235 270 4,500 2,100 Climbing FlightAware ADS-B (EKCH / CPH)
10:29PM -28.1359 153.5911 148° Southeast 249 287 4,800 2,160 Climbing FlightAware ADS-B (EKCH / CPH)
10:29PM -28.1589 153.6018 158° South 260 299 5,700 3,000 Climbing FlightAware ADS-B (EKCH / CPH)
10:30PM -28.1970 153.6200 157° South 263 303 7,500 3,120 Climbing FlightAware
10:30PM -28.2111 153.6275 155° Southeast 268 308 8,300 3,060 Climbing FlightAware ADS-B (EKCH / CPH)
10:30PM -28.2285 153.6339 162° South 268 308 8,900 3,120 Climbing FlightAware ADS-B (EKCH / CPH)
10:31PM -28.2415 153.6335 182° South 268 308 9,400 3,000 Climbing FlightAware ADS-B (EKCH / CPH)
10:31PM -28.2529 153.6291 199° South 269 310 9,900 2,700 Climbing FlightAware ADS-B (EKCH / CPH)
10:31PM -28.2633 153.6211 214° Southwest 274 315 10,300 1,800 Climbing FlightAware ADS-B (EKCH / CPH)
10:31PM -28.2687 153.6148 226° Southwest 290 334 10,500 1,080 Climbing FlightAware ADS-B (EKCH / CPH)
10:32PM -28.2991 153.5618 237° Southwest 342 394 11,200 1,020 Climbing FlightAware ADS-B (EKCH / CPH)
10:32PM -28.3299 153.5070 237° Southwest 376 433 11,700 1,560 Climbing FlightAware ADS-B (EKCH / CPH)
10:33PM -28.3594 153.4553 237° Southwest 389 448 12,800 2,400 Climbing FlightAware ADS-B (EKCH / CPH)
10:33PM -28.3895 153.4021 237° Southwest 395 455 14,200 2,700 Climbing FlightAware ADS-B (EKCH / CPH)
10:34PM -28.4296 153.3315 237° Southwest 404 465 16,000 2,640 Climbing FlightAware ADS-B (EKCH / CPH)
10:34PM -28.4599 153.2779 237° Southwest 410 472 17,300 2,580 Climbing FlightAware ADS-B (EKCH / CPH)
10:35PM -28.4906 153.2238 237° Southwest 413 475 18,600 2,280 Climbing FlightAware ADS-B (EKCH / CPH)
10:35PM -28.5196 153.1727 237° Southwest 413 475 19,600 1,380 Climbing FlightAware ADS-B (EKCH / CPH)
10:36PM -28.5528 153.1136 237° Southwest 414 476 20,000 360 Climbing FlightAware ADS-B (EKCH / CPH)
10:36PM -28.5818 153.0619 237° Southwest 414 476 20,000  Level FlightAware ADS-B (EKCH / CPH)
10:37PM -28.6138 153.0049 237° Southwest 413 475 20,000 840 Level FlightAware ADS-B (EKCH / CPH)
10:38PM -28.6553 152.9315 237° Southwest 416 479 21,000 1,740 Climbing FlightAware ADS-B (EKCH / CPH)
10:38PM -28.6877 152.8742 237° Southwest 420 483 22,100 2,940 Climbing FlightAware ADS-B (EKCH / CPH)
10:39PM -28.7191 152.8182 237° Southwest 399 459 24,000 3,300 Climbing FlightAware ADS-B
10:39PM -28.7374 152.7854 238° Southwest 398 458 24,800 2,160 Climbing FlightAware ADS-B
10:39PM -28.7443 152.7730 238° Southwest 402 463 24,900 1,020 Climbing FlightAware ADS-B
10:39PM -28.7549 152.7541 238° Southwest 408 470 25,100 1,500 Climbing FlightAware ADS-B
10:39PM -28.7688 152.7292 237° Southwest 408 470 25,500 1,800 Climbing FlightAware ADS-B
10:40PM -28.7783 152.7121 238° Southwest 409 471 25,800 1,980 Climbing FlightAware ADS-B
10:40PM -28.7899 152.6914 237° Southwest 409 471 26,200 2,400 Climbing FlightAware ADS-B
10:40PM -28.7939 152.6842 237° Southwest 409 471 26,400 2,280 Climbing FlightAware ADS-B
10:40PM -28.8080 152.6589 238° Southwest 409 471 26,900 1,980 Climbing FlightAware ADS-B
10:40PM -28.8186 152.6398 238° Southwest 408 470 27,200 1,920 Climbing FlightAware ADS-B
10:41PM -28.8398 152.6018 237° Southwest 407 468 27,900 2,040 Climbing FlightAware ADS-B
10:41PM -28.8516 152.5826 235° Southwest 408 470 28,300 1,800 Climbing FlightAware ADS-B
10:41PM -28.8893 152.5301 231° Southwest 414 476 29,200 1,620 Climbing FlightAware ADS-B (EKCH / CPH)
10:42PM -28.9035 152.5106 230° Southwest 412 474 29,500 2,040 Climbing FlightAware ADS-B
10:42PM -28.9497 152.4471 230° Southwest 406 467 30,900 2,160 Climbing FlightAware ADS-B (EKCH / CPH)
10:43PM -28.9859 152.3973 230° Southwest 399 459 32,000 1,980 Climbing FlightAware ADS-B (EKCH / CPH)
10:43PM -29.0204 152.3501 230° Southwest 394 453 32,900 1,380 Climbing FlightAware ADS-B (EKCH / CPH)
10:44PM -29.0558 152.3013 230° Southwest 398 458 33,400 1,200 Climbing FlightAware ADS-B (EKCH / CPH)
10:44PM -29.0910 152.2529 230° Southwest 396 456 34,100 1,620 Climbing FlightAware ADS-B (EKCH / CPH)
10:45PM -29.1374 152.1890 230° Southwest 390 449 35,300 1,620 Climbing FlightAware ADS-B (EKCH / CPH)
10:45PM -29.1820 152.1273 230° Southwest 383 441 36,300 840 Climbing FlightAware ADS-B (EKCH / CPH)
10:46PM -29.2090 152.0900 230° Southwest 382 440 36,300 1,140 Level FlightAware
10:46PM -29.2379 152.0499 230° Southwest 378 435 37,300 1,140 Climbing FlightAware ADS-B (EKCH / CPH)
10:47PM -29.2650 152.0130 230° Southwest 378 435 37,300  Level FlightAware
10:47PM -29.2990 151.9660 230° Southwest 378 435 37,300  Level FlightAware
10:48PM -29.3350 151.9170 230° Southwest 378 435 37,300  Level FlightAware
10:49PM -29.3700 151.8700 229° Southwest 378 435 37,300  Level FlightAware
10:49PM -29.4040 151.8230 230° Southwest 378 435 37,300  Level FlightAware
10:50PM -29.4380 151.7760 230° Southwest 378 435 37,300  Level FlightAware
10:50PM -29.4730 151.7280 230° Southwest 378 435 37,300 900 Level FlightAware
10:51PM -29.5305 151.6302 236° Southwest 390 449 38,000 360 Climbing FlightAware ADS-B (EKCH / CPH)
10:52PM -29.6094 151.4540 243° Southwest 389 448 38,000  Level FlightAware ADS-B (EKCH / CPH)
10:53PM -29.6354 151.3958 243° Southwest 387 445 38,000  Level FlightAware ADS-B (EKCH / CPH)
10:53PM -29.6598 151.3412 243° Southwest 386 444 38,000  Level FlightAware ADS-B (EKCH / CPH)
10:54PM -29.6863 151.2818 243° Southwest 385 443 38,000  Level FlightAware ADS-B (EKCH / CPH)
10:54PM -29.7109 151.2268 243° Southwest 384 442 38,000  Level FlightAware ADS-B (EKCH / CPH)
10:55PM -29.7424 151.1560 243° Southwest 383 441 38,000  Level FlightAware ADS-B (EKCH / CPH)
10:55PM -29.7674 151.0997 243° Southwest 382 440 38,000  Level FlightAware ADS-B (EKCH / CPH)
10:56PM -29.7977 151.0314 243° Southwest 380 437 38,000  Level FlightAware ADS-B (EKCH / CPH)
10:57PM -29.8232 150.9737 243° Southwest 379 436 38,000  Level FlightAware ADS-B (EKCH / CPH)
10:57PM -29.8542 150.9037 243° Southwest 377 434 38,000  Level FlightAware ADS-B (EKCH / CPH)
10:58PM -29.8784 150.8487 243° Southwest 375 432 38,000  Level FlightAware ADS-B (EKCH / CPH)
10:58PM -29.9083 150.7811 243° Southwest 373 429 38,000  Level FlightAware ADS-B (EKCH / CPH)
10:59PM -29.9480 150.6900 243° Southwest 373 429 38,000  Level FlightAware
11:00PM -29.9608 150.6610 243° Southwest 370 426 38,000 60 Level FlightAware ADS-B (EKCH / CPH)
11:00PM -30.0001 150.5702 243° Southwest 367 422 38,100  Climbing Aus ATC (RADAR)
11:01PM -30.0060 150.5580 243° Southwest 368 423 38,000  Descending FlightAware
11:01PM -30.0115 150.5441 243° Southwest 367 422 38,100  Climbing Aus ATC (RADAR)
11:01PM -30.0300 150.5040 243° Southwest 368 423 38,000 -120 Descending FlightAware
11:02PM -30.0530 150.4510 243° Southwest 368 423 38,000  Level FlightAware
11:02PM -30.0770 150.3970 243° Southwest 368 423 38,000  Level FlightAware
11:03PM -30.1010 150.3430 243° Southwest 368 423 38,000  Level FlightAware
11:04PM -30.1240 150.2900 243° Southwest 368 423 38,000  Level FlightAware
11:04PM -30.1480 150.2360 243° Southwest 368 423 38,000  Level FlightAware
11:05PM -30.1720 150.1820 243° Southwest 368 423 38,000  Level FlightAware
11:05PM -30.1960 150.1270 243° Southwest 368 423 38,000  Level FlightAware
11:06PM -30.2200 150.0730 243° Southwest 368 423 38,000  Level FlightAware
11:07PM -30.2430 150.0200 243° Southwest 368 423 38,000  Level FlightAware
11:07PM -30.2670 149.9660 243° Southwest 368 423 38,000  Level FlightAware
11:08PM -30.2910 149.9120 243° Southwest 368 423 38,000  Level FlightAware
11:08PM -30.3140 149.8580 244° Southwest 368 423 38,000  Level FlightAware
11:09PM -30.3380 149.8050 242° Southwest 368 423 38,000  Level FlightAware
11:10PM -30.3620 149.7490 244° Southwest 368 423 38,000 60 Level FlightAware
11:10PM -30.4691 149.5220 244° Southwest 367 422 38,100  Climbing Aus ATC (RADAR)
11:11PM -30.5198 149.4164 241° Southwest 367 422 38,100  Level Aus ATC (RADAR)
11:12PM -30.5480 149.3569 241° Southwest 375 432 38,100  Level Aus ATC (RADAR)
11:12PM -30.5610 149.3304 240° Southwest 376 433 38,100  Level Aus ATC (RADAR)
11:13PM -30.5915 149.2664 241° Southwest 367 422 38,100  Level Aus ATC (RADAR)
11:14PM -30.6367 149.1707 241° Southwest 378 435 38,100  Level Aus ATC (RADAR)
11:14PM -30.6663 149.1090 241° Southwest 377 434 38,100  Level Aus ATC (RADAR)
11:15PM -30.7093 149.0174 241° Southwest 369 425 38,100  Level Aus ATC (RADAR)
11:15PM -30.7221 148.9908 241° Southwest 370 426 38,100  Level Aus ATC (RADAR)
11:16PM -30.7671 148.8954 241° Southwest 378 435 38,100  Level Aus ATC (RADAR)
11:17PM -30.8020 148.8218 241° Southwest 369 425 38,100  Level Aus ATC (RADAR)
11:18PM -30.8342 148.7531 241° Southwest 378 435 38,100  Level Aus ATC (RADAR)
11:18PM -30.8759 148.6641 241° Southwest 378 435 38,100  Level Aus ATC (RADAR)
11:19PM -30.8885 148.6373 241° Southwest 378 435 38,100  Level Aus ATC (RADAR)
11:19PM -30.9174 148.5751 241° Southwest 376 433 38,100  Level Aus ATC (RADAR)
11:20PM -30.9592 148.4862 241° Southwest 377 434 38,100  Level Aus ATC (RADAR)
11:21PM -30.9883 148.4234 242° Southwest 379 436 38,100  Level Aus ATC (RADAR)
11:22PM -31.0465 148.2985 241° Southwest 378 435 38,100 -120 Level Aus ATC (RADAR)
11:22PM -31.0603 148.2696 241° Southwest 369 425 38,000  Descending Aus ATC (RADAR)
11:23PM -31.0881 148.2092 242° Southwest 379 436 38,100  Climbing Aus ATC (RADAR)
11:24PM -31.1543 148.0663 242° Southwest 378 435 38,000 -60 Descending Aus ATC (RADAR)
11:25PM -31.2252 147.9115 242° Southwest 369 425 38,000  Level Aus ATC (RADAR)
11:26PM -31.2416 147.8757 242° Southwest 369 425 38,000  Level Aus ATC (RADAR)
11:26PM -31.2660 147.8230 242° Southwest 376 433 38,000  Level FlightAware
11:27PM -31.2990 147.7520 241° Southwest 374 430 38,000  Level FlightAware
11:28PM -31.3290 147.6880 241° Southwest 374 430 38,000  Level FlightAware
11:28PM -31.3570 147.6250 242° Southwest 369 425 38,000  Level FlightAware
11:29PM -31.3860 147.5620 242° Southwest 373 429 38,000  Level FlightAware
11:29PM -31.4150 147.4990 242° Southwest 373 429 38,000  Level FlightAware
11:30PM -31.4390 147.4440 243° Southwest 369 425 38,000  Level FlightAware
11:30PM -31.4710 147.3750 241° Southwest 369 425 38,000  Level FlightAware
11:31PM -31.4990 147.3120 242° Southwest 373 429 38,000  Level FlightAware
11:32PM -31.5270 147.2500 242° Southwest 369 425 38,000  Level FlightAware
11:32PM -31.5610 147.1800 240° Southwest 371 427 38,000  Level FlightAware
11:33PM -31.5960 147.1200 236° Southwest 377 434 38,000  Level FlightAware
11:33PM -31.6300 147.0620 235° Southwest 378 435 38,000  Level FlightAware
11:34PM -31.6650 147.0020 236° Southwest 375 432 38,000  Level FlightAware
11:35PM -31.7010 146.9420 235° Southwest 380 437 38,000  Level FlightAware
11:35PM -31.7350 146.8830 236° Southwest 380 437 38,000  Level FlightAware
11:36PM -31.7700 146.8220 236° Southwest 381 438 38,000  Level FlightAware
11:36PM -31.8040 146.7630 236° Southwest 377 434 38,000  Level FlightAware
11:37PM -31.8390 146.7030 236° Southwest 379 436 38,000  Level FlightAware
11:38PM -31.8750 146.6410 236° Southwest 379 436 38,000  Level FlightAware
11:38PM -31.9160 146.5697 236° Southwest 377 434 38,000  Level Aus ATC (RADAR)
11:38PM -31.9150 146.5720 236° Southwest 380 437 38,000  Level FlightAware
11:39PM -31.9500 146.5120 235° Southwest 379 436 38,000  Level FlightAware
11:39PM -31.9890 146.4430 236° Southwest 379 436 38,000  Level FlightAware
11:40PM -32.0200 146.3900 235° Southwest 379 436 38,000  Level FlightAware
11:41PM -32.0545 146.3285 235° Southwest 376 433 38,000  Level Aus ATC (RADAR)
11:41PM -32.0550 146.3290 235° Southwest 382 440 38,000  Level FlightAware
11:41PM -32.0890 146.2700 236° Southwest 382 440 38,000  Level FlightAware
11:42PM -32.1240 146.2090 236° Southwest 381 438 38,000  Level FlightAware
11:42PM -32.1580 146.1500 236° Southwest 379 436 38,000  Level FlightAware
11:43PM -32.1980 146.0800 236° Southwest 378 435 38,000  Level FlightAware
11:44PM -32.2270 146.0280 237° Southwest 377 434 38,000  Level FlightAware
11:44PM -32.2620 145.9670 237° Southwest 375 432 38,000  Level FlightAware
11:44PM -32.2653 145.9602 237° Southwest 382 440 38,000  Level Aus ATC (RADAR)
11:45PM -32.2950 145.9090 237° Southwest 375 432 38,000  Level FlightAware
11:45PM -32.2962 145.9049 237° Southwest 370 426 38,000  Level Aus ATC (RADAR)
11:45PM -32.3290 145.8480 237° Southwest 375 432 38,000  Level FlightAware
11:46PM -32.3587 145.7938 237° Southwest 368 423 38,000  Level Aus ATC (RADAR)
11:46PM -32.3620 145.7900 237° Southwest 375 432 38,000  Level FlightAware
11:46PM -32.3936 145.7329 237° Southwest 372 428 38,000  Level Aus ATC (RADAR)
11:46PM -32.3960 145.7290 237° Southwest 375 432 38,000  Level FlightAware
11:47PM -32.4300 145.6710 235° Southwest 376 433 38,000  Level FlightAware
11:48PM -32.4640 145.6100 237° Southwest 377 434 38,000  Level FlightAware
11:48PM -32.4950 145.5550 236° Southwest 378 435 38,000  Level FlightAware
11:49PM -32.5340 145.4850 237° Southwest 380 437 38,000  Level FlightAware
11:49PM -32.5660 145.4280 237° Southwest 380 437 38,000  Level FlightAware
11:49PM -32.5720 145.4166 237° Southwest 378 435 38,000  Level Aus ATC (RADAR)
11:50PM -32.6070 145.3550 237° Southwest 381 438 38,000  Level FlightAware
11:50PM -32.6063 145.3548 237° Southwest 377 434 38,000  Level Aus ATC (RADAR)
11:51PM -32.6410 145.2940 236° Southwest 382 440 38,000  Level FlightAware
11:51PM -32.6760 145.2320 236° Southwest 383 441 38,000  Level FlightAware
11:52PM -32.7090 145.1720 237° Southwest 383 441 38,000  Level FlightAware
11:52PM -32.7440 145.1100 236° Southwest 384 442 38,000  Level FlightAware
11:53PM -32.7780 145.0480 236° Southwest 383 441 38,000  Level FlightAware
11:53PM -32.7783 145.0470 236° Southwest 380 437 38,000  Level Aus ATC (RADAR)
11:54PM -32.8126 144.9855 236° Southwest 381 438 38,000  Level Aus ATC (RADAR)
11:54PM -32.8120 144.9860 236° Southwest 382 440 38,000  Level FlightAware
11:54PM -32.8460 144.9260 236° Southwest 380 437 38,000  Level FlightAware
11:55PM -32.8800 144.8640 237° Southwest 380 437 38,000  Level FlightAware
11:55PM -32.9140 144.8020 237° Southwest 379 436 38,000  Level FlightAware
11:56PM -32.9470 144.7420 237° Southwest 379 436 38,000  Level FlightAware
11:57PM -32.9850 144.6730 237° Southwest 380 437 38,000  Level FlightAware
11:57PM -33.0140 144.6190 237° Southwest 380 437 38,000  Level FlightAware
11:58PM -33.0490 144.5570 236° Southwest 382 440 38,000  Level FlightAware
11:58PM -33.0820 144.4970 237° Southwest 382 440 38,000  Level FlightAware
11:59PM -33.1160 144.4340 237° Southwest 382 440 38,000  Level FlightAware
11:59PM -33.1490 144.3740 237° Southwest 382 440 38,000  Level FlightAware
12:00AM -33.1880 144.3020 237° Southwest 382 440 38,000  Level FlightAware
12:00AM -33.1902 144.2952 237° Southwest 383 441 38,000  Level Aus ATC (RADAR)
12:01AM -33.2260 144.2310 237° Southwest 382 440 38,000  Level FlightAware
12:01AM -33.2600 144.1690 237° Southwest 382 440 38,000  Level FlightAware
12:02AM -33.2880 144.1170 237° Southwest 382 440 38,000  Level FlightAware
12:02AM -33.3280 144.0440 237° Southwest 384 442 38,000  Level FlightAware
12:03AM -33.3560 143.9920 237° Southwest 385 443 38,000  Level FlightAware
12:03AM -33.3611 143.9824 237° Southwest 382 440 38,000  Level Aus ATC (RADAR)
12:04AM -33.3950 143.9190 237° Southwest 385 443 38,000  Level FlightAware
12:04AM -33.4280 143.8570 237° Southwest 385 443 38,000  Level FlightAware
12:05AM -33.4630 143.7940 236° Southwest 385 443 38,000  Level FlightAware
12:05AM -33.4930 143.7300 241° Southwest 379 436 38,000  Level FlightAware
12:06AM -33.5190 143.6740 241° Southwest 378 435 38,000  Level FlightAware
12:07AM -33.5570 143.5910 241° Southwest 379 436 38,000  Level FlightAware
12:07AM -33.5870 143.5240 242° Southwest 379 436 38,000  Level FlightAware
12:08AM -33.6160 143.4600 241° Southwest 383 441 38,000  Level FlightAware
12:08AM -33.6460 143.3940 241° Southwest 379 436 38,000  Level FlightAware
12:09AM -33.6750 143.3300 241° Southwest 382 440 38,000  Level FlightAware
12:10AM -33.7040 143.2640 242° Southwest 381 438 38,000  Level FlightAware
12:10AM -33.7340 143.2000 241° Southwest 380 437 38,000  Level FlightAware
12:11AM -33.7720 143.1140 242° Southwest 380 437 38,000  Level FlightAware
12:12AM -33.8050 143.0420 241° Southwest 379 436 38,000  Level FlightAware
12:12AM -33.8380 142.9670 242° Southwest 378 435 38,000  Level FlightAware
12:13AM -33.8660 142.9030 242° Southwest 379 436 38,000  Level FlightAware
12:13AM -33.8960 142.8370 241° Southwest 378 435 38,000  Level FlightAware
12:14AM -33.9240 142.7730 242° Southwest 378 435 38,000  Level FlightAware
12:15AM -33.9580 142.6980 241° Southwest 377 434 38,000  Level FlightAware
12:15AM -33.9810 142.6450 242° Southwest 376 433 38,000  Level FlightAware
12:16AM -34.0110 142.5780 242° Southwest 375 432 38,000  Level FlightAware
12:16AM -34.0373 142.5185 242° Southwest 373 429 38,000  Level Aus ATC (RADAR)
12:16AM -34.0460 142.4970 242° Southwest 373 429 38,000  Level FlightAware
12:17AM -34.0750 142.4320 242° Southwest 372 428 38,000  Level FlightAware
12:18AM -34.0980 142.3800 242° Southwest 368 423 38,000  Level FlightAware
12:18AM -34.1270 142.3150 242° Southwest 368 423 38,000  Level FlightAware
12:19AM -34.1560 142.2480 242° Southwest 368 423 38,000  Level FlightAware
12:19AM -34.1850 142.1820 242° Southwest 371 427 38,000  Level FlightAware
12:20AM -34.2120 142.1200 242° Southwest 377 434 38,000  Level FlightAware
12:20AM -34.2360 142.0580 245° Southwest 376 433 38,000  Level FlightAware
12:21AM -34.2580 141.9920 248° West 378 435 38,000  Level FlightAware
12:22AM -34.2780 141.9340 247° West 378 435 38,000  Level FlightAware
12:22AM -34.3051 141.8527 247° West 376 433 38,000  Level Aus ATC (RADAR)
12:22AM -34.3070 141.8470 247° West 379 436 38,000  Level FlightAware
12:23AM -34.3300 141.7780 248° West 378 435 38,000  Level FlightAware
12:23AM -34.3530 141.7080 248° West 378 435 38,000 -180 Level FlightAware
12:23AM -34.3537 141.7063 248° West 375 432 37,900 -180 Descending Aus ATC (RADAR)
12:24AM -34.3763 141.6378 248° West 376 433 37,900 120 Level Aus ATC (RADAR)
12:24AM -34.3730 141.6470 248° West 378 435 38,000 120 Climbing FlightAware
12:25AM -34.3980 141.5720 248° West 378 435 38,000  Level FlightAware
12:25AM -34.4210 141.5030 248° West 379 436 38,000  Level FlightAware
12:26AM -34.4440 141.4330 248° West 377 434 38,000 -120 Level FlightAware
12:26AM -34.4669 141.3634 248° West 373 429 37,900  Descending Aus ATC (RADAR)
12:26AM -34.4660 141.3650 248° West 378 435 38,000  Climbing FlightAware
12:27AM -34.4891 141.2950 248° West 372 428 37,900  Descending Aus ATC (RADAR)
12:27AM -34.4870 141.3000 248° West 377 434 38,000 180 Climbing FlightAware
12:27AM -34.5103 141.2302 248° West 378 435 38,000  Level FlightAware ADS-B (YPAD / ADL)
12:28AM -34.5302 141.1694 248° West 378 435 38,000  Level FlightAware ADS-B (YPAD / ADL)
12:28AM -34.5495 141.1101 248° West 377 434 38,000 -120 Level FlightAware ADS-B (YPAD / ADL)
12:29AM -34.5756 141.0305 248° West 373 429 37,900  Descending Aus ATC (RADAR)
12:29AM -34.5790 141.0210 248° West 377 434 38,000 300 Climbing FlightAware
12:29AM -34.5879 140.9922 249° West 377 434 38,000  Level FlightAware ADS-B (YPAD / ADL)
12:30AM -34.6067 140.9338 249° West 380 437 38,000  Level FlightAware ADS-B (YPAD / ADL)
12:31AM -34.6271 140.8703 249° West 380 437 38,000  Level FlightAware ADS-B (YPAD / ADL)
12:31AM -34.6471 140.8085 249° West 380 437 38,000  Level FlightAware ADS-B (YPAD / ADL)
12:32AM -34.6663 140.7490 249° West 380 437 38,000  Level FlightAware ADS-B (YPAD / ADL)
12:32AM -34.6857 140.6888 249° West 381 438 38,000 -300 Level FlightAware ADS-B (YPAD / ADL)
12:33AM -34.7075 140.6201 249° West 376 433 37,700 -1,320 Descending FlightAware ADS-B (YPAD / ADL)
12:33AM -34.7260 140.5618 249° West 373 429 36,600 -2,640 Descending FlightAware ADS-B (YPAD / ADL)
12:34AM -34.7373 140.4893 259° West 378 435 34,900 -3,000 Descending FlightAware ADS-B (YPAD / ADL)
12:34AM -34.7400 140.4248 267° West 380 437 33,300 -3,000 Descending FlightAware ADS-B (YPAD / ADL)
12:35AM -34.7424 140.3607 267° West 375 432 31,900 -2,580 Descending FlightAware ADS-B (YPAD / ADL)
12:35AM -34.7446 140.2980 267° West 365 420 30,700 -2,280 Descending FlightAware ADS-B (YPAD / ADL)
12:36AM -34.7470 140.2386 267° West 352 405 29,600 -2,340 Descending FlightAware ADS-B (YPAD / ADL)
12:36AM -34.7496 140.1809 267° West 340 391 28,400 -2,280 Descending FlightAware ADS-B (YPAD / ADL)
12:37AM -34.7520 140.1206 267° West 329 379 27,300 -2,100 Descending FlightAware ADS-B (YPAD / ADL)
12:37AM -34.7539 140.0672 268° West 322 371 26,300 -2,100 Descending FlightAware ADS-B (YPAD / ADL)
12:38AM -34.7560 140.0112 267° West 315 362 25,200 -2,040 Descending FlightAware ADS-B (YPAD / ADL)
12:38AM -34.7586 139.9421 267° West 304 350 23,900 -1,980 Descending FlightAware ADS-B (YPAD / ADL)
12:39AM -34.7602 139.8896 268° West 297 342 22,900 -1,980 Descending FlightAware ADS-B (YPAD / ADL)
12:39AM -34.7621 139.8391 267° West 299 344 21,900 -1,980 Descending FlightAware ADS-B (YPAD / ADL)
12:40AM -34.7645 139.7802 267° West 308 354 20,800 -1,980 Descending FlightAware ADS-B (YPAD / ADL)
12:41AM -34.7661 139.7283 268° West 306 352 19,800 -2,040 Descending FlightAware ADS-B (YPAD / ADL)
12:41AM -34.7680 139.6679 268° West 308 354 18,600 -2,040 Descending FlightAware ADS-B (YPAD / ADL)
12:42AM -34.7698 139.6174 268° West 310 357 17,600 -2,040 Descending FlightAware ADS-B (YPAD / ADL)
12:42AM -34.7717 139.5627 268° West 309 356 16,600 -1,980 Descending FlightAware ADS-B (YPAD / ADL)
12:43AM -34.7734 139.5105 268° West 305 351 15,600 -1,980 Descending FlightAware ADS-B (YPAD / ADL)
12:43AM -34.7755 139.4457 268° West 297 342 14,300 -1,980 Descending FlightAware ADS-B (YPAD / ADL)
12:44AM -34.7776 139.3757 268° West 289 333 13,000 -1,920 Descending FlightAware ADS-B (YPAD / ADL)
12:44AM -34.7788 139.3267 268° West 289 333 12,000 -1,800 Descending Aus ATC (RADAR)
12:45AM -34.7789 139.3113 268° West 284 327 11,800 -1,380 Descending FlightAware ADS-B (YPAD / ADL)
12:45AM -34.7811 139.2612 267° West 285 328 11,100 -1,200 Descending FlightAware ADS-B (YPAD / ADL)
12:46AM -34.7860 139.2110 263° West 284 327 10,600 -1,320 Descending FlightAware
12:46AM -34.7887 139.1809 264° West 282 325 10,000 -1,860 Descending FlightAware ADS-B (YPAD / ADL)
12:46AM -34.7917 139.1493 263° West 279 321 9,400 -1,740 Descending FlightAware ADS-B (YPAD / ADL)
12:47AM -34.7941 139.1234 264° West 276 318 8,900 -1,800 Descending FlightAware ADS-B (YPAD / ADL)
12:47AM -34.7975 139.0877 263° West 272 313 8,200 -1,740 Descending FlightAware ADS-B (YPAD / ADL)
12:47AM -34.8001 139.0590 264° West 267 307 7,700 -1,620 Descending FlightAware ADS-B (YPAD / ADL)
12:48AM -34.8029 139.0270 264° West 261 300 7,100 -1,800 Descending FlightAware ADS-B (YPAD / ADL)
12:48AM -34.8059 138.9921 264° West 256 295 6,400 -1,080 Descending FlightAware ADS-B (YPAD / ADL)
12:48AM -34.8086 138.9635 263° West 243 280 6,300 -480 Descending FlightAware ADS-B (YPAD / ADL)
12:49AM -34.8110 138.9380 264° West 238 274 6,100 -900 Descending FlightAware ADS-B (YPAD / ADL)
12:49AM -34.8136 138.9097 264° West 234 269 5,700 -1,200 Descending FlightAware ADS-B (YPAD / ADL)
12:49AM -34.8156 138.8870 264° West 233 268 5,300 -1,320 Descending FlightAware ADS-B (YPAD / ADL)
12:50AM -34.8181 138.8582 264° West 230 265 4,800 -1,080 Descending FlightAware ADS-B (YPAD / ADL)
12:50AM -34.8205 138.8317 264° West 219 252 4,600 -480 Descending FlightAware ADS-B (YPAD / ADL)
12:50AM -34.8225 138.8088 264° West 214 246 4,500 -480 Descending FlightAware ADS-B (YPAD / ADL)
12:51AM -34.8245 138.7856 264° West 211 243 4,300 -600 Descending FlightAware ADS-B (YPAD / ADL)
12:51AM -34.8268 138.7598 264° West 204 235 4,100 -480 Descending FlightAware ADS-B (YPAD / ADL)
12:51AM -34.8287 138.7377 264° West 196 226 4,000 -780 Descending FlightAware ADS-B (YPAD / ADL)
12:52AM -34.8306 138.7158 264° West 194 223 3,600 -1,080 Descending FlightAware ADS-B (YPAD / ADL)
12:52AM -34.8371 138.6946 250° West 196 226 3,300 -1,080 Descending FlightAware ADS-B (YPAD / ADL)
12:52AM -34.8479 138.6777 232° Southwest 195 224 2,900 -1,080 Descending FlightAware ADS-B (YPAD / ADL)
12:53AM -34.8595 138.6611 229° Southwest 191 220 2,600 -1,020 Descending FlightAware ADS-B (YPAD / ADL)
12:53AM -34.8713 138.6440 230° Southwest 182 209 2,200 -1,080 Descending FlightAware ADS-B (YPAD / ADL)
12:53AM -34.8810 138.6300 230° Southwest 166 191 1,900 -900 Descending FlightAware ADS-B (YPAD / ADL)
12:54AM -34.8910 138.6155 230° Southwest 153 176 1,600 -840 Descending FlightAware ADS-B (YPAD / ADL)
12:54AM -34.9017 138.5999 230° Southwest 153 176 1,300 -840 Descending FlightAware ADS-B (YPAD / ADL)
12:55AM -34.9105 138.5871 230° Southwest 146 168 1,000 -780 Descending FlightAware ADS-B (YPAD / ADL)
12:55AM -34.9195 138.5741 230° Southwest 144 166 800 -720 Descending FlightAware ADS-B (YPAD / ADL)
12:55AM -34.9227 138.5694 230° Southwest 140 161 500 -780 Descending FlightAware ADS-B (YPAD / ADL)
12:56AM -34.9394 138.5451 230° Southwest 141 162 100 -840 Descending FlightAware ADS-B (YPAD / ADL)